User: anonymous   Login
Location: Ottawa
(45.4170°N, 75.7000°W)
Time: 18:19:56
(UTC-05:00)
Language:

Aureole 3 Rocket - Orbit

View from above orbital plane
View from above orbital plane
View from above satellite
View from above satellite

Ground track
Ground track

The orbit data is extracted from the following two-line orbital elements,

1 12849U 81094B   16037.52253014  .00000533  00000-0  49503-4 0  9991
2 12849  82.4934 187.7465 0904379 310.0738  42.4399 13.49631321674919
Epoch (UTC): 06 February 2016 12:32:26
Eccentricity: 0.0904379
inclination: 82.4934°
perigee height: 400 km
apogee height: 1747 km
right ascension of ascending node: 187.7465°
argument of perigee: 310.0738°
revolutions per day: 13.49631321
mean anomaly at epoch: 42.4399°
orbit number at epoch: 67491

The dashed part of the orbit path shows where the satellite is in the earth's shadow,  

DLR